Location: Miles
(41.4492°N, 81.6087°W)
Time: 08:21:49
(UTC+00:00)

Transit 2A - Pass Details

Date: 21 September 2024
Orbit: 590 x 960 km, 66.7° (Epoch: 09 October)

Event Time Altitude Azimuth Distance (km) Brightness Sun altitude
Rises 06:24:26 0° 335° (NNW) 3,636 9.9 -45.6°
Reaches altitude 10° 06:27:20 10° 345° (NNW) 2,665 9.2 -45.3°
Enters shadow 06:27:58 13° 348° (NNW) 2,469 9.0 -45.3°
Maximum altitude 06:32:55 33° 48° (NE) 1,474 - -44.9°
Drops below altitude 10° 06:38:08 10° 111° (ESE) 2,486 - -44.4°
Sets 06:40:44 0° 121° (ESE) 3,360 - -44.2°
